Total_Precipitation_Accumulation
0.00 0.00 0.00 0.00 0.00 0.00 0.00 0.00 0.00 0.00 0.00 0.00 0.00 0.00 0.00 0.00 0.00 0.00 0.00 0.00 0.00 0.00 0.00 0.00 0.00 0.00 0.00 0.00 0.00 0.00 0.01 0.01 0.00 0.01 0.02 0.02 0.03 0.01 0.02 0.03 0.04 0.07 0.11 0.56 0.71 0.20 0.50 0.81 1.04 0.33 0.38 0.41 0.38 0.88 0.75 0.52 0.67 0.72 0.71 0.55 0.23 0.44 0.53 1.05 0.86 0.38 0.34 0.37 0.05 0.02 0.01 0.01 0.00 0.01 0.00 0.00 0.00 0.01 0.00 0.00 0.01 0.01 0.12 0.06 0.04 0.05
0.00 0.00 0.00 0.00 0.00 0.00 0.00 0.00 0.00 0.00 0.00 0.00 0.00 0.00 0.00 0.00 0.00 0.00 0.00 0.00 0.00 0.00 0.00 0.00 0.00 0.00 0.00 0.00 0.00 0.01 0.01 0.01 0.00 0.01 0.01 0.02 0.01 0.02 0.02 0.04 0.07 0.04 0.29 0.49 0.57 0.34 0.31 0.71 0.56 0.75 0.36 0.18 0.21 0.33 0.71 0.46 0.73 0.90 0.85 0.83 0.88 0.94 0.46 0.48 0.37 0.42 0.34 0.17 0.04 0.01 0.01 0.00 0.00 0.00 0.00 0.00 0.00 0.00 0.00 0.00 0.00 0.00 0.00 0.01 0.01 0.02
0.00 0.00 0.00 0.00 0.00 0.00 0.00 0.00 0.00 0.00 0.00 0.00 0.00 0.00 0.00 0.00 0.00 0.00 0.00 0.00 0.00 0.00 0.00 0.00 0.00 0.00 0.00 0.00 0.00 0.00 0.01 0.01 0.00 0.00 0.01 0.01 0.01 0.01 0.02 0.03 0.14 0.35 0.15 0.31 0.39 0.42 0.49 0.69 0.59 0.60 0.33 0.38 0.25 0.35 0.37 0.79 0.39 0.42 0.26 0.58 0.55 0.71 0.17 0.14 0.06 0.08 0.11 0.07 0.01 0.00 0.00 0.00 0.00 0.00 0.00 0.00 0.00 0.00 0.00 0.00 0.00 0.00 0.00 0.00 0.01 0.01
0.00 0.00 0.00 0.00 0.00 0.00 0.00 0.00 0.00 0.00 0.00 0.00 0.00 0.00 0.00 0.00 0.00 0.04 0.00 0.00 0.00 0.00 0.00 0.00 0.00 0.00 0.00 0.00 0.00 0.00 0.00 0.01 0.01 0.00 0.01 0.01 0.00 0.01 0.01 0.02 0.06 0.05 0.42 0.84 0.58 0.47 0.77 0.74 0.70 0.35 0.27 0.20 0.19 0.20 0.30 0.28 0.21 0.24 1.03 0.75 0.69 0.13 0.14 0.08 0.04 0.04 0.01 0.01 0.01 0.00 0.00 0.00 0.00 0.00 0.00 0.00 0.00 0.00 0.00 0.00 0.00 0.00 0.00 0.00 0.00 0.00
0.01 0.01 0.00 0.00 0.00 0.00 0.00 0.00 0.00 0.00 0.00 0.00 0.00 0.00 0.00 0.00 0.01 0.00 0.04 0.00 0.00 0.00 0.00 0.00 0.00 0.00 0.00 0.00 0.00 0.00 0.00 0.00 0.00 0.01 0.01 0.01 0.00 0.01 0.02 0.08 0.05 0.08 0.17 0.24 0.72 0.86 0.52 0.69 0.35 0.17 0.13 0.17 0.11 0.36 0.25 0.13 0.23 0.43 0.41 0.27 0.39 0.67 0.56 0.24 0.03 0.02 0.01 0.01 0.01 0.02 0.01 0.00 0.00 0.00 0.00 0.00 0.00 0.00 0.00 0.00 0.00 0.00 0.00 0.00 0.00 0.00
0.00 0.01 0.01 0.00 0.00 0.00 0.00 0.00 0.00 0.00 0.00 0.00 0.00 0.00 0.00 0.00 0.00 0.00 0.00 0.00 0.00 0.01 0.00 0.00 0.02 0.02 0.01 0.00 0.00 0.00 0.00 0.03 0.00 0.00 0.00 0.00 0.02 0.01 0.06 0.10 0.04 0.10 0.68 0.59 0.49 0.68 0.35 0.53 0.43 0.21 0.11 0.13 0.09 0.09 0.12 0.20 0.61 0.59 0.90 0.81 0.63 1.33 1.23 0.40 0.09 0.05 0.03 0.01 0.00 0.00 0.00 0.00 0.00 0.00 0.00 0.00 0.00 0.00 0.00 0.00 0.00 0.00 0.00 0.00 0.00 0.00
0.01 0.00 0.00 0.00 0.00 0.00 0.00 0.00 0.00 0.00 0.00 0.00 0.05 0.00 0.00 0.00 0.00 0.00 0.00 0.00 0.03 0.07 0.05 0.00 0.03 0.05 0.00 0.00 0.00 0.00 0.00 0.00 0.00 0.02 0.01 0.03 0.10 0.07 0.11 0.08 0.32 0.29 0.45 0.68 0.25 0.21 0.39 1.00 1.11 1.15 0.46 0.20 0.05 0.03 0.08 0.26 0.36 0.68 1.00 0.67 1.50 0.83 0.29 0.15 0.17 0.07 0.01 0.00 0.00 0.00 0.00 0.00 0.00 0.00 0.00 0.00 0.00 0.00 0.00 0.00 0.00 0.00 0.00 0.00 0.00 0.00
0.00 0.00 0.00 0.00 0.00 0.00 0.00 0.00 0.00 0.00 0.01 0.03 0.04 0.00 0.00 0.00 0.00 0.01 0.00 0.00 0.06 0.01 0.01 0.00 0.00 0.03 0.01 0.03 0.00 0.00 0.01 0.01 0.00 0.02 0.02 0.08 0.08 0.09 0.19 0.13 0.10 0.35 0.49 0.15 0.06 0.21 0.33 0.65 1.01 0.50 0.65 0.31 0.16 0.04 0.07 0.12 0.26 0.27 0.45 1.32 0.54 0.10 0.17 0.09 0.12 0.04 0.02 0.00 0.00 0.00 0.00 0.00 0.00 0.00 0.00 0.00 0.00 0.00 0.00 0.00 0.00 0.00 0.00 0.00 0.00 0.00
0.00 0.00 0.00 0.00 0.00 0.00 0.00 0.00 0.00 0.00 0.00 0.06 0.00 0.00 0.01 0.00 0.04 0.00 0.00 0.02 0.06 0.01 0.07 0.01 0.01 0.01 0.06 0.03 0.00 0.00 0.01 0.00 0.04 0.01 0.09 0.04 0.06 0.16 0.18 0.17 0.29 0.24 0.12 0.11 0.03 0.07 0.15 0.41 1.28 1.23 1.10 0.56 0.23 0.16 0.10 0.08 0.55 0.84 0.81 0.15 0.10 0.31 0.22 0.13 0.10 0.15 0.06 0.04 0.02 0.03 0.00 0.00 0.00 0.00 0.00 0.00 0.00 0.00 0.00 0.00 0.00 0.00 0.00 0.00 0.00 0.00
0.00 0.00 0.00 0.00 0.00 0.00 0.00 0.00 0.00 0.00 0.02 0.00 0.00 0.00 0.00 0.00 0.00 0.00 0.01 0.01 0.04 0.01 0.03 0.04 0.05 0.02 0.02 0.03 0.01 0.00 0.01 0.08 0.05 0.07 0.02 0.09 0.05 0.06 0.10 0.19 0.14 0.15 0.05 0.04 0.01 0.04 0.16 0.42 0.76 0.92 0.84 0.41 0.25 0.36 0.20 0.04 0.09 0.31 0.13 0.11 0.07 0.23 0.27 0.11 0.10 0.18 0.28 0.22 0.15 0.05 0.00 0.00 0.00 0.00 0.00 0.00 0.00 0.00 0.00 0.00 0.00 0.00 0.00 0.00 0.00 0.00
0.00 0.00 0.00 0.00 0.00 0.00 0.00 0.00 0.00 0.00 0.00 0.00 0.00 0.00 0.01 0.00 0.01 0.00 0.00 0.02 0.02 0.03 0.01 0.01 0.04 0.00 0.06 0.14 0.05 0.12 0.00 0.01 0.06 0.10 0.05 0.01 0.02 0.00 0.02 0.16 0.17 0.24 0.21 0.10 0.04 0.03 0.09 0.68 0.69 0.92 0.84 1.38 1.27 1.09 0.51 0.11 0.03 0.23 0.31 0.45 0.58 0.22 0.18 0.23 0.14 0.21 0.45 0.21 0.06 0.01 0.00 0.00 0.00 0.00 0.00 0.00 0.00 0.00 0.00 0.00 0.00 0.00 0.00 0.00 0.00 0.00
0.00 0.00 0.00 0.00 0.00 0.00 0.00 0.00 0.00 0.00 0.00 0.00 0.00 0.02 0.01 0.02 0.01 0.02 0.06 0.05 0.08 0.00 0.02 0.02 0.01 0.10 0.04 0.10 0.06 0.04 0.01 0.01 0.01 0.08 0.04 0.03 0.03 0.00 0.01 0.14 0.24 0.25 0.23 0.15 0.06 0.04 0.02 0.24 0.72 0.71 1.06 0.79 0.32 0.40 0.59 0.52 0.20 0.17 0.23 0.14 0.24 0.23 0.38 0.51 0.08 0.09 0.11 0.04 0.01 0.01 0.01 0.00 0.00 0.00 0.00 0.00 0.00 0.00 0.00 0.00 0.00 0.00 0.00 0.00 0.00 0.00
0.00 0.00 0.00 0.00 0.00 0.00 0.00 0.00 0.00 0.00 0.00 0.00 0.00 0.01 0.07 0.08 0.01 0.09 0.05 0.06 0.03 0.01 0.13 0.01 0.03 0.02 0.01 0.09 0.05 0.00 0.03 0.02 0.02 0.02 0.05 0.04 0.02 0.01 0.00 0.00 0.07 0.07 0.13 0.10 0.09 0.04 0.02 0.25 0.67 0.62 0.63 0.20 0.95 0.88 0.66 0.39 0.28 0.19 0.09 0.14 0.06 0.38 0.35 0.27 0.06 0.01 0.01 0.02 0.01 0.01 0.00 0.00 0.00 0.00 0.00 0.00 0.00 0.00 0.00 0.00 0.00 0.00 0.00 0.00 0.00 0.00
0.00 0.00 0.00 0.00 0.00 0.00 0.00 0.00 0.05 0.01 0.00 0.00 0.01 0.11 0.05 0.10 0.03 0.02 0.10 0.04 0.06 0.03 0.04 0.09 0.05 0.02 0.06 0.09 0.05 0.11 0.02 0.03 0.05 0.01 0.01 0.04 0.01 0.01 0.02 0.02 0.07 0.09 0.13 0.10 0.07 0.16 0.16 0.10 0.16 0.79 0.93 0.80 1.27 0.66 0.70 0.50 0.44 0.31 0.31 0.04 0.11 0.20 0.16 0.22 0.29 0.01 0.00 0.00 0.01 0.00 0.00 0.00 0.00 0.00 0.00 0.00 0.00 0.00 0.00 0.00 0.00 0.00 0.00 0.00 0.00 0.00
0.02 0.03 0.01 0.00 0.04 0.00 0.00 0.00 0.01 0.02 0.02 0.01 0.00 0.01 0.16 0.07 0.15 0.04 0.07 0.06 0.02 0.13 0.04 0.04 0.00 0.04 0.01 0.20 0.01 0.05 0.02 0.02 0.03 0.03 0.01 0.01 0.02 0.03 0.02 0.05 0.04 0.14 0.24 0.24 0.23 0.34 0.40 0.21 0.28 1.18 1.39 1.56 1.19 0.60 0.54 0.54 0.44 0.89 1.18 0.44 0.85 0.49 0.54 0.32 0.25 0.09 0.00 0.00 0.00 0.00 0.00 0.00 0.00 0.00 0.00 0.00 0.00 0.00 0.00 0.00 0.00 0.00 0.00 0.00 0.00 0.00
0.01 0.01 0.02 0.00 0.00 0.00 0.00 0.00 0.00 0.00 0.00 0.00 0.01 0.00 0.01 0.07 0.03 0.10 0.22 0.03 0.10 0.09 0.02 0.03 0.00 0.06 0.14 0.04 0.04 0.02 0.03 0.05 0.02 0.02 0.04 0.04 0.05 0.09 0.11 0.01 0.04 0.10 0.15 0.24 0.29 0.25 0.35 0.99 1.06 1.46 2.08 2.01 1.12 0.49 0.49 0.41 0.77 1.01 0.66 1.13 1.25 1.00 1.07 0.62 0.26 0.06 0.02 0.01 0.00 0.01 0.00 0.00 0.00 0.01 0.00 0.00 0.00 0.00 0.00 0.00 0.00 0.00 0.00 0.00 0.00 0.00
0.01 0.04 0.00 0.00 0.00 0.00 0.00 0.00 0.01 0.00 0.17 0.29 0.00 0.07 0.07 0.05 0.02 0.08 0.00 0.00 0.00 0.00 0.02 0.03 0.03 0.02 0.01 0.01 0.00 0.09 0.02 0.03 0.11 0.15 0.12 0.07 0.11 0.10 0.02 0.02 0.02 0.02 0.04 0.07 0.28 0.73 1.00 1.01 1.19 1.23 0.59 0.80 0.38 0.40 0.34 0.24 0.40 0.75 0.53 0.96 1.08 1.06 1.29 0.61 0.65 0.30 0.05 0.02 0.01 0.00 0.00 0.00 0.00 0.00 0.00 0.00 0.00 0.00 0.00 0.00 0.00 0.00 0.00 0.00 0.00 0.00
0.05 0.05 0.01 0.00 0.02 0.00 0.00 0.00 0.00 0.00 0.00 0.09 0.04 0.11 0.01 0.00 0.04 0.04 0.11 0.07 0.03 0.02 0.02 0.00 0.01 0.06 0.01 0.18 0.01 0.01 0.01 0.00 0.06 0.11 0.09 0.12 0.16 0.14 0.17 0.06 0.09 0.17 0.10 0.26 0.94 0.91 0.70 1.17 0.70 0.46 0.74 0.68 0.26 0.14 0.23 0.47 0.37 0.38 0.66 1.08 2.07 2.34 2.60 1.28 0.53 0.15 0.05 0.02 0.02 0.01 0.00 0.00 0.01 0.00 0.00 0.00 0.00 0.00 0.00 0.00 0.00 0.00 0.00 0.00 0.00 0.00
0.00 0.03 0.04 0.00 0.00 0.01 0.00 0.00 0.00 0.00 0.00 0.01 0.05 0.03 0.03 0.15 0.08 0.08 0.01 0.02 0.04 0.01 0.06 0.01 0.03 0.03 0.05 0.09 0.02 0.05 0.05 0.02 0.02 0.03 0.04 0.09 0.08 0.05 0.08 0.42 0.63 0.76 0.81 0.85 0.73 0.76 0.84 0.60 0.32 0.47 0.44 0.61 0.28 0.32 0.51 0.41 1.03 1.07 0.46 1.55 1.00 1.13 1.48 0.76 0.63 0.19 0.04 0.02 0.01 0.00 0.01 0.04 0.00 0.04 0.00 0.00 0.00 0.00 0.00 0.00 0.00 0.00 0.00 0.00 0.00 0.01
0.01 0.01 0.04 0.00 0.00 0.03 0.00 0.00 0.02 0.03 0.00 0.00 0.00 0.00 0.03 0.02 0.04 0.12 0.09 0.18 0.02 0.07 0.02 0.02 0.03 0.15 0.03 0.24 0.08 0.18 0.04 0.11 0.06 0.02 0.02 0.01 0.07 0.03 0.02 0.07 0.05 0.08 0.15 0.17 0.17 0.35 0.37 0.31 0.31 0.29 0.19 0.30 0.38 0.31 0.35 0.56 0.66 0.40 0.64 1.08 0.67 0.57 0.74 0.69 0.98 0.70 0.12 0.03 0.02 0.02 0.02 0.18 0.27 0.02 0.01 0.01 0.00 0.00 0.00 0.00 0.00 0.00 0.00 0.00 0.00 0.00
0.02 0.00 0.06 0.08 0.00 0.00 0.04 0.01 0.03 0.08 0.11 0.06 0.02 0.01 0.02 0.02 0.01 0.01 0.08 0.05 0.10 0.22 0.09 0.14 0.10 0.12 0.19 0.13 0.05 0.16 0.15 0.09 0.09 0.06 0.09 0.04 0.02 0.03 0.06 0.11 0.10 0.06 0.01 0.03 0.07 0.12 0.32 0.32 0.20 0.26 0.53 0.63 0.32 0.51 0.46 0.45 0.46 0.24 0.67 0.59 0.36 0.35 0.28 0.35 0.49 0.59 0.58 0.32 0.07 0.02 0.02 0.08 0.10 0.07 0.01 0.01 0.00 0.00 0.01 0.00 0.00 0.01 0.00 0.00 0.00 0.00
0.00 0.00 0.00 0.00 0.02 0.02 0.02 0.00 0.03 0.00 0.04 0.04 0.08 0.11 0.06 0.16 0.25 0.21 0.29 0.02 0.10 0.15 0.12 0.06 0.11 0.15 0.30 0.05 0.09 0.13 0.14 0.08 0.09 0.18 0.14 0.07 0.06 0.03 0.03 0.02 0.04 0.02 0.02 0.02 0.12 0.11 0.13 0.31 0.23 0.19 0.30 0.23 0.43 0.66 0.79 0.54 0.60 0.12 0.16 0.09 0.33 0.13 0.32 0.10 0.09 0.14 0.29 0.24 0.30 0.19 0.18 0.24 0.23 0.16 0.15 0.09 0.00 0.01 0.00 0.00 0.00 0.00 0.00 0.00 0.00 0.00
0.08 0.05 0.02 0.00 0.02 0.22 0.02 0.05 0.00 0.00 0.00 0.02 0.01 0.12 0.01 0.09 0.11 0.18 0.21 0.27 0.15 0.14 0.14 0.17 0.18 0.26 0.07 0.08 0.16 0.09 0.13 0.12 0.14 0.10 0.09 0.04 0.08 0.05 0.03 0.05 0.10 0.11 0.02 0.04 0.06 0.08 0.02 0.07 0.20 0.49 0.51 0.25 0.20 0.17 0.43 0.47 0.10 0.13 0.09 0.09 0.05 0.06 0.11 0.15 0.17 0.18 0.18 0.15 0.19 0.31 0.51 0.48 0.57 0.22 0.14 0.09 0.01 0.01 0.01 0.02 0.01 0.02 0.02 0.01 0.01 0.00
0.00 0.02 0.01 0.01 0.07 0.06 0.01 0.00 0.00 0.00 0.00 0.01 0.01 0.01 0.06 0.12 0.10 0.19 0.29 0.27 0.11 0.13 0.12 0.11 0.09 0.22 0.06 0.05 0.24 0.30 0.18 0.04 0.15 0.16 0.11 0.04 0.03 0.02 0.00 0.04 0.02 0.01 0.05 0.04 0.03 0.02 0.01 0.11 0.26 0.11 0.06 0.59 0.22 0.14 0.15 0.04 0.08 0.08 0.03 0.10 0.05 0.09 0.06 0.14 0.46 0.35 0.63 0.49 0.23 0.22 0.24 0.65 0.38 0.37 0.44 0.34 0.30 0.14 0.11 0.07 0.12 0.14 0.05 0.01 0.01 0.01
0.33 0.32 0.06 0.15 0.06 0.01 0.07 0.02 0.00 0.01 0.02 0.08 0.06 0.07 0.06 0.04 0.03 0.06 0.05 0.12 0.22 0.07 0.12 0.24 0.29 0.25 0.11 0.13 0.05 0.21 0.27 0.13 0.15 0.09 0.06 0.09 0.07 0.06 0.03 0.03 0.06 0.12 0.16 0.14 0.05 0.10 0.08 0.03 0.04 0.05 0.04 0.20 0.05 0.07 0.04 0.02 0.03 0.09 0.06 0.05 0.22 0.32 0.43 0.56 0.65 0.47 0.40 0.26 0.19 0.20 0.49 0.53 0.61 0.45 0.32 0.38 0.46 0.44 0.29 0.23 0.28 0.40 0.34 0.31 0.25 0.15
0.10 0.14 0.12 0.17 0.20 0.11 0.17 0.09 0.12 0.12 0.07 0.03 0.01 0.02 0.02 0.02 0.07 0.07 0.11 0.11 0.18 0.07 0.07 0.34 0.27 0.12 0.13 0.19 0.13 0.08 0.08 0.14 0.15 0.16 0.21 0.25 0.18 0.24 0.13 0.42 0.20 0.38 0.32 0.12 0.13 0.15 0.06 0.06 0.09 0.10 0.04 0.16 0.20 0.13 0.12 0.06 0.07 0.13 0.14 0.13 0.06 0.03 0.09 0.08 0.52 0.31 0.52 0.40 0.50 0.55 0.45 0.28 0.45 0.90 0.87 0.50 0.36 0.22 0.12 0.14 0.21 0.25 0.33 0.36 0.40 0.46
0.25 0.07 0.10 0.08 0.09 0.24 0.07 0.08 0.05 0.02 0.05 0.13 0.03 0.03 0.03 0.03 0.14 0.21 0.21 0.23 0.20 0.12 0.18 0.23 0.20 0.23 0.09 0.17 0.06 0.16 0.17 0.16 0.19 0.13 0.18 0.28 0.26 0.08 0.18 0.31 0.36 0.24 0.29 0.11 0.10 0.11 0.03 0.03 0.03 0.05 0.02 0.04 0.08 0.10 0.05 0.06 0.08 0.09 0.08 0.12 0.13 0.14 0.11 0.25 0.08 0.07 0.09 0.16 0.09 0.09 0.15 0.29 0.52 0.48 0.32 0.23 0.29 0.15 0.23 0.15 0.11 0.09 0.45 0.65 0.60 0.46
0.08 0.08 0.10 0.10 0.08 0.08 0.04 0.05 0.02 0.01 0.11 0.05 0.06 0.03 0.04 0.02 0.05 0.12 0.11 0.33 0.07 0.17 0.30 0.10 0.19 0.09 0.14 0.22 0.18 0.14 0.17 0.35 0.26 0.38 0.20 0.21 0.13 0.15 0.42 0.44 0.42 0.23 0.19 0.28 0.38 0.09 0.13 0.23 0.09 0.04 0.08 0.06 0.07 0.04 0.09 0.08 0.11 0.11 0.11 0.11 0.04 0.08 0.10 0.27 0.51 0.40 0.13 0.29 0.26 0.16 0.29 0.49 0.75 0.56 0.75 0.61 0.91 0.57 0.34 0.42 0.65 0.74 0.94 0.84 0.49 0.49
0.19 0.10 0.04 0.05 0.06 0.06 0.15 0.12 0.06 0.10 0.09 0.08 0.08 0.08 0.05 0.04 0.16 0.15 0.10 0.10 0.09 0.19 0.21 0.11 0.15 0.21 0.08 0.08 0.04 0.07 0.17 0.28 0.33 0.41 0.18 0.29 0.32 0.23 0.29 0.28 0.20 0.30 0.21 0.08 0.12 0.14 0.09 0.15 0.10 0.10 0.09 0.06 0.05 0.05 0.12 0.10 0.13 0.11 0.04 0.03 0.02 0.06 0.15 0.24 0.38 0.25 0.04 0.07 0.12 0.22 0.22 0.25 0.49 0.59 0.31 0.80 0.74 0.51 0.98 1.16 0.78 0.50 0.48 0.40 0.33 0.21
0.01 0.02 0.04 0.03 0.04 0.03 0.05 0.06 0.04 0.09 0.06 0.08 0.10 0.04 0.07 0.11 0.22 0.14 0.11 0.05 0.10 0.11 0.07 0.17 0.14 0.20 0.08 0.09 0.19 0.17 0.16 0.41 0.45 0.32 0.19 0.25 0.31 0.38 0.44 0.32 0.33 0.19 0.22 0.42 0.34 0.10 0.12 0.09 0.13 0.07 0.02 0.07 0.08 0.06 0.13 0.10 0.11 0.07 0.04 0.05 0.12 0.14 0.29 0.23 0.34 0.35 0.15 0.12 0.08 0.07 0.25 0.57 0.56 0.95 0.93 0.67 0.70 0.58 1.25 1.09 1.30 1.11 0.41 0.47 0.31 0.15
0.00 0.19 0.01 0.12 0.04 0.08 0.02 0.02 0.04 0.04 0.04 0.08 0.08 0.05 0.11 0.18 0.11 0.08 0.03 0.01 0.08 0.15 0.11 0.07 0.14 0.06 0.07 0.05 0.02 0.06 0.03 0.06 0.10 0.44 0.27 0.13 0.26 0.40 0.33 0.49 0.39 0.20 0.38 0.31 0.42 0.25 0.12 0.08 0.09 0.08 0.09 0.11 0.10 0.07 0.07 0.03 0.02 0.05 0.06 0.05 0.14 0.14 0.05 0.07 0.07 0.13 0.24 0.31 0.37 0.54 0.56 1.05 1.15 0.74 0.89 0.64 1.09 0.68 1.04 0.82 0.49 0.51 0.42 0.31 0.19 0.49
0.02 0.11 0.02 0.06 0.09 0.04 0.07 0.03 0.04 0.03 0.05 0.07 0.07 0.09 0.06 0.05 0.16 0.07 0.11 0.04 0.07 0.08 0.07 0.10 0.28 0.27 0.16 0.16 0.04 0.17 0.20 0.07 0.08 0.09 0.10 0.32 0.23 0.20 0.29 0.27 0.28 0.29 0.44 0.20 0.09 0.06 0.06 0.05 0.07 0.14 0.09 0.10 0.11 0.09 0.08 0.07 0.10 0.15 0.20 0.04 0.07 0.08 0.23 0.40 0.37 0.62 0.58 0.60 0.68 0.63 0.67 0.69 0.83 0.74 0.63 0.73 0.57 0.66 0.43 0.37 0.44 0.41 0.35 0.22 0.32 0.18
0.20 0.05 0.02 0.05 0.06 0.03 0.02 0.06 0.04 0.03 0.06 0.09 0.05 0.03 0.02 0.02 0.02 0.13 0.16 0.19 0.15 0.04 0.02 0.04 0.16 0.10 0.11 0.14 0.10 0.08 0.01 0.02 0.00 0.02 0.17 0.39 0.37 0.15 0.15 0.17 0.31 0.10 0.06 0.22 0.07 0.10 0.04 0.04 0.05 0.05 0.07 0.07 0.17 0.16 0.07 0.06 0.06 0.05 0.04 0.06 0.10 0.11 0.08 0.19 0.41 0.53 0.66 0.66 0.47 0.47 0.61 0.71 0.59 0.52 0.61 0.32 0.48 0.73 1.13 0.77 0.37 0.33 0.20 0.13 0.13 0.13
0.17 0.04 0.03 0.12 0.15 0.03 0.11 0.03 0.06 0.10 0.11 0.08 0.03 0.01 0.02 0.05 0.07 0.07 0.04 0.02 0.11 0.14 0.08 0.05 0.01 0.02 0.01 0.01 0.01 0.01 0.01 0.03 0.04 0.01 0.03 0.06 0.16 0.86 0.64 0.58 0.60 0.22 0.04 0.02 0.07 0.15 0.25 0.02 0.03 0.03 0.01 0.04 0.03 0.14 0.20 0.13 0.14 0.05 0.05 0.04 0.04 0.04 0.06 0.12 0.11 0.08 0.12 0.24 0.47 0.38 0.34 0.45 0.57 0.43 0.37 0.50 0.54 0.42 0.37 0.24 0.19 0.15 0.13 0.11 0.14 0.12
0.08 0.11 0.05 0.12 0.15 0.07 0.07 0.08 0.23 0.10 0.11 0.10 0.00 0.01 0.01 0.01 0.01 0.04 0.04 0.04 0.04 0.08 0.08 0.06 0.05 0.03 0.02 0.04 0.03 0.04 0.05 0.06 0.07 0.04 0.05 0.04 0.02 0.67 1.40 1.70 1.40 0.83 0.46 0.34 0.13 0.12 0.14 0.04 0.07 0.08 0.03 0.03 0.02 0.02 0.05 0.07 0.12 0.12 0.06 0.10 0.06 0.05 0.09 0.07 0.12 0.10 0.08 0.07 0.09 0.11 0.28 0.12 0.19 0.24 0.45 0.58 0.54 0.51 0.24 0.15 0.22 0.17 0.16 0.11 0.20 0.14
0.04 0.06 0.08 0.13 0.11 0.16 0.17 0.24 0.15 0.18 0.01 0.08 0.08 0.00 0.01 0.00 0.01 0.04 0.05 0.04 0.03 0.07 0.06 0.05 0.05 0.03 0.04 0.04 0.05 0.06 0.18 0.09 0.05 0.04 0.08 0.06 0.01 0.13 0.27 0.27 0.34 1.04 1.63 0.79 0.36 0.50 0.39 0.48 0.52 0.20 0.13 0.19 0.03 0.04 0.06 0.07 0.09 0.11 0.10 0.10 0.11 0.08 0.07 0.06 0.09 0.10 0.08 0.05 0.05 0.04 0.11 0.36 0.31 0.11 0.28 0.29 0.21 0.28 0.32 0.23 0.15 0.28 0.20 0.35 0.14 0.20
0.04 0.03 0.06 0.13 0.17 0.23 0.14 0.33 0.21 0.06 0.06 0.23 0.17 0.01 0.00 0.05 0.16 0.07 0.03 0.03 0.02 0.02 0.02 0.03 0.04 0.05 0.08 0.09 0.10 0.08 0.14 0.06 0.04 0.04 0.01 0.05 0.12 0.05 0.06 0.24 0.96 1.25 0.64 0.77 0.75 0.93 0.99 0.59 0.78 0.47 0.33 0.70 0.35 0.27 0.32 0.14 0.06 0.06 0.06 0.04 0.06 0.04 0.04 0.06 0.13 0.09 0.13 0.34 0.28 0.17 0.18 0.09 0.25 0.28 0.12 0.09 0.06 0.05 0.04 0.03 0.02 0.03 0.05 0.05 0.03 0.02
0.08 0.02 0.14 0.20 0.23 0.08 0.22 0.31 0.30 0.20 0.47 0.20 0.22 0.08 0.03 0.07 0.07 0.07 0.03 0.02 0.02 0.04 0.07 0.05 0.03 0.05 0.04 0.08 0.09 0.07 0.17 0.13 0.08 0.05 0.02 0.03 0.04 0.03 0.03 0.06 0.07 0.06 0.13 0.17 0.24 0.62 0.91 1.09 1.30 1.35 1.35 1.08 1.59 1.09 0.50 0.35 0.35 0.37 0.15 0.12 0.07 0.10 0.05 0.06 0.08 0.12 0.11 0.07 0.07 0.24 0.10 0.22 0.14 0.23 0.12 0.11 0.06 0.03 0.04 0.03 0.05 0.04 0.02 0.03 0.02 0.03
0.06 0.09 0.25 0.37 0.22 0.16 0.22 0.21 0.23 0.29 0.21 0.11 0.22 0.12 0.08 0.18 0.11 0.11 0.11 0.17 0.14 0.08 0.12 0.10 0.05 0.05 0.09 0.05 0.06 0.07 0.14 0.20 0.13 0.16 0.10 0.17 0.07 0.05 0.10 0.13 0.13 0.14 0.14 0.22 0.24 0.19 0.24 0.14 0.16 0.13 0.22 0.21 0.42 0.33 0.19 0.21 0.22 0.18 0.31 0.18 0.10 0.11 0.11 0.16 0.23 0.19 0.19 0.19 0.33 0.34 0.18 0.06 0.17 0.19 0.55 0.40 0.21 0.09 0.08 0.04 0.07 0.06 0.03 0.04 0.05 0.06
0.16 0.15 0.14 0.12 0.07 0.08 0.30 0.28 0.36 0.20 0.24 0.22 0.30 0.52 0.31 0.41 0.48 0.49 0.40 0.26 0.20 0.02 0.07 0.11 0.06 0.06 0.07 0.03 0.06 0.06 0.11 0.20 0.29 0.34 0.06 0.21 0.15 0.10 0.10 0.03 0.07 0.09 0.11 0.06 0.16 0.26 0.29 0.27 0.28 0.31 0.18 0.05 0.10 0.08 0.10 0.21 0.14 0.23 0.16 0.22 0.19 0.20 0.22 0.19 0.18 0.14 0.24 0.20 0.29 0.06 0.23 0.16 0.15 0.20 0.13 0.22 0.09 0.22 0.39 0.44 0.26 0.21 0.19 0.12 0.12 0.09
0.12 0.12 0.06 0.11 0.15 0.36 0.20 0.31 0.26 0.24 0.08 0.03 0.08 0.23 0.22 0.53 0.52 0.45 0.40 0.35 0.04 0.10 0.10 0.10 0.09 0.11 0.10 0.29 0.08 0.07 0.06 0.21 0.11 0.04 0.12 0.13 0.21 0.16 0.10 0.05 0.22 0.17 0.09 0.08 0.26 0.18 0.08 0.14 0.15 0.14 0.13 0.18 0.16 0.14 0.17 0.20 0.23 0.16 0.05 0.10 0.10 0.23 0.29 0.40 0.23 0.33 0.32 0.10 0.10 0.18 0.27 0.22 0.22 0.18 0.09 0.10 0.14 0.07 0.11 0.21 0.37 0.44 0.34 0.54 0.44 0.31
0.08 0.03 0.07 0.06 0.17 0.18 0.42 0.52 0.44 0.61 0.43 0.24 0.49 0.18 0.49 0.14 0.68 0.70 0.25 0.09 0.04 0.03 0.21 0.09 0.20 0.11 0.03 0.03 0.13 0.23 0.20 0.39 0.05 0.05 0.07 0.13 0.15 0.17 0.23 0.22 0.29 0.17 0.22 0.24 0.18 0.08 0.11 0.11 0.17 0.19 0.15 0.23 0.30 0.23 0.18 0.31 0.20 0.15 0.13 0.33 0.19 0.23 0.16 0.32 0.39 0.24 0.15 0.21 0.12 0.23 0.19 0.13 0.32 0.34 0.19 0.17 0.13 0.08 0.10 0.10 0.09 0.09 0.07 0.12 0.19 0.16
0.10 0.10 0.09 0.18 0.06 0.06 0.07 0.17 0.37 0.39 1.87 0.04 0.19 0.05 0.35 0.45 0.50 0.35 0.12 0.03 0.02 0.04 0.05 0.09 0.05 0.11 0.09 0.04 0.02 0.09 0.07 0.10 0.12 0.08 0.09 0.08 0.20 0.25 0.17 0.58 0.12 0.33 0.35 0.18 0.23 0.31 0.35 0.17 0.15 0.16 0.30 0.27 0.19 0.18 0.26 0.08 0.11 0.08 0.14 0.30 0.47 0.23 0.27 0.28 0.43 0.28 0.20 0.43 0.36 0.22 0.11 0.16 0.14 0.12 0.13 0.09 0.08 0.14 0.24 0.22 0.05 0.06 0.05 0.06 0.07 0.08
0.14 0.08 0.13 0.17 0.08 0.28 0.39 0.28 0.39 0.46 0.38 0.28 0.12 0.29 0.20 0.14 0.06 0.10 0.03 0.05 0.08 0.04 0.10 0.28 0.59 0.41 0.63 0.27 0.37 0.15 0.07 0.22 0.11 0.17 0.13 0.17 0.19 0.18 0.13 0.14 0.15 0.19 0.19 0.20 0.23 0.23 0.32 0.24 0.29 0.22 0.32 0.52 0.30 0.31 0.31 0.29 0.21 0.28 0.30 0.33 0.21 0.30 0.36 0.42 0.39 0.39 0.22 0.14 0.25 0.21 0.10 0.05 0.05 0.03 0.07 0.10 0.09 0.16 0.28 0.13 0.19 0.15 0.05 0.06 0.10 0.13
0.37 0.07 0.22 0.27 0.17 0.18 0.23 0.20 0.17 0.08 0.10 0.08 0.06 0.07 0.09 0.09 0.08 0.06 0.06 0.23 0.48 0.49 0.42 0.10 0.28 0.51 0.25 0.22 0.22 0.18 0.20 0.11 0.21 0.14 0.26 0.29 0.35 0.31 0.25 0.37 0.24 0.22 0.10 0.09 0.28 0.19 0.30 0.24 0.18 0.12 0.19 0.26 0.38 0.29 0.28 0.34 0.25 0.17 0.28 0.20 0.19 0.19 0.34 0.33 0.33 0.36 0.33 0.25 0.15 0.08 0.06 0.03 0.04 0.04 0.08 0.08 0.11 0.14 0.15 0.10 0.06 0.10 0.15 0.13 0.15 0.19
0.05 0.03 0.10 0.21 0.08 0.04 0.04 0.02 0.02 0.02 0.02 0.04 0.02 0.02 0.07 0.10 0.14 0.22 0.14 0.19 0.34 0.52 0.30 0.24 0.20 0.28 0.10 0.05 0.09 0.14 0.11 0.18 0.22 0.23 0.31 0.37 0.36 0.37 0.37 0.31 0.21 0.19 0.18 0.17 0.19 0.16 0.23 0.17 0.16 0.20 0.18 0.08 0.16 0.29 0.30 0.34 0.25 0.31 0.34 0.38 0.38 0.22 0.30 0.29 0.22 0.25 0.12 0.07 0.08 0.05 0.03 0.03 0.03 0.04 0.06 0.08 0.11 0.15 0.17 0.08 0.06 0.08 0.07 0.06 0.13 0.15
0.02 0.10 0.11 0.19 0.10 0.10 0.09 0.03 0.03 0.13 0.06 0.04 0.05 0.02 0.02 0.03 0.11 0.24 0.19 0.23 0.32 0.31 0.36 0.16 0.12 0.28 0.38 0.33 0.17 0.07 0.09 0.17 0.21 0.27 0.26 0.27 0.26 0.21 0.22 0.16 0.15 0.11 0.09 0.11 0.14 0.12 0.11 0.07 0.09 0.23 0.34 0.15 0.13 0.25 0.37 0.34 0.24 0.17 0.24 0.31 0.31 0.23 0.21 0.27 0.25 0.33 0.24 0.15 0.17 0.17 0.08 0.08 0.07 0.11 0.10 0.09 0.15 0.15 0.15 0.15 0.05 0.13 0.12 0.10 0.13 0.17
0.10 0.45 0.14 0.09 0.09 0.07 0.06 0.04 0.05 0.01 0.00 0.01 0.01 0.03 0.05 0.14 0.21 0.12 0.13 0.10 0.16 0.56 0.39 0.24 0.20 0.43 0.54 0.23 0.18 0.12 0.18 0.29 0.27 0.31 0.36 0.23 0.17 0.13 0.09 0.11 0.10 0.08 0.08 0.10 0.13 0.22 0.20 0.18 0.22 0.35 0.34 0.15 0.20 0.37 0.37 0.30 0.25 0.18 0.17 0.21 0.32 0.26 0.25 0.27 0.31 0.28 0.24 0.18 0.15 0.14 0.13 0.15 0.09 0.09 0.08 0.11 0.15 0.19 0.20 0.15 0.09 0.14 0.23 0.25 0.25 0.23
0.10 0.13 0.06 0.08 0.11 0.04 0.02 0.01 0.01 0.03 0.01 0.02 0.02 0.09 0.10 0.09 0.17 0.13 0.15 0.18 0.32 0.19 0.14 0.16 0.23 0.23 0.24 0.21 0.23 0.19 0.23 0.30 0.08 0.03 0.04 0.03 0.04 0.05 0.06 0.06 0.08 0.09 0.17 0.38 0.11 0.12 0.12 0.14 0.19 0.25 0.15 0.13 0.21 0.45 0.26 0.31 0.22 0.16 0.12 0.16 0.19 0.16 0.20 0.23 0.20 0.22 0.21 0.21 0.20 0.13 0.08 0.07 0.08 0.07 0.06 0.10 0.18 0.17 0.22 0.25 0.16 0.13 0.31 0.33 0.42 0.47
0.07 0.12 0.11 0.14 0.15 0.10 0.08 0.13 0.13 0.10 0.08 0.11 0.12 0.17 0.12 0.19 0.20 0.23 0.22 0.23 0.26 0.41 0.20 0.28 0.52 0.36 0.28 0.28 0.41 0.21 0.19 0.19 0.09 0.04 0.04 0.01 0.01 0.01 0.02 0.03 0.03 0.03 0.04 0.13 0.09 0.15 0.10 0.10 0.16 0.19 0.13 0.13 0.19 0.35 0.23 0.39 0.19 0.16 0.13 0.11 0.12 0.16 0.34 0.18 0.21 0.23 0.20 0.19 0.17 0.15 0.11 0.11 0.09 0.05 0.13 0.08 0.09 0.16 0.20 0.17 0.13 0.11 0.21 0.40 0.32 0.23
0.05 0.08 0.15 0.17 0.15 0.13 0.08 0.09 0.15 0.12 0.05 0.03 0.04 0.07 0.14 0.22 0.15 0.16 0.20 0.27 0.46 0.59 0.50 0.47 0.41 0.48 0.46 0.44 0.41 0.34 0.19 0.09 0.07 0.06 0.05 0.03 0.01 0.01 0.01 0.02 0.02 0.04 0.06 0.06 0.03 0.02 0.04 0.07 0.13 0.14 0.42 0.33 0.18 0.38 0.29 0.40 0.28 0.26 0.13 0.10 0.15 0.20 0.20 0.16 0.18 0.18 0.20 0.20 0.20 0.16 0.16 0.12 0.09 0.04 0.04 0.04 0.12 0.11 0.14 0.17 0.26 0.10 0.11 0.13 0.20 0.22